Madison, WI

7:05 AM CST on February 14, 2016 (GMT -0600)
Dane County Regional-Truax

Weather History for KMSN - April, 2012

Change the Weather History Date:

Thursday, April 5, 2012

  Actual Average Record
Temperature  
Mean Temperature 43 °F 42 °F  
Max Temperature 53 °F 53 °F 80 °F (1873)
Min Temperature 33 °F 32 °F 14 °F (1995)
Degree Days  
Heating Degree Days 22 23  
Month to date heating degree days 77 118  
Since 1 July heating degree days 5198 6567  
Cooling Degree Days 0 0  
Month to date cooling degree days 0 0  
Year to date cooling degree days 26 0  
Moisture  
Dew Point 29 °F    
Average Humidity 62    
Maximum Humidity 82    
Minimum Humidity 41    
Precipitation  
Precipitation 0.00 in 0.11 in 1.48 in (1958)
Month to date precipitation 0.00 0.52  
Year to date precipitation 5.04 5.40  
Snow  
Snow 0.00 in 0.10 in 8.00 in (1982)
Month to date snowfall 0.0 0.7  
Since 1 July snowfall 31.4 48.8  
Snow Depth 0.00 in    
Sea Level Pressure  
Sea Level Pressure 30.12 in    
Wind  
Wind Speed 12 mph (NE)    
Max Wind Speed 21 mph    
Max Gust Speed 26 mph    
Visibility 10 miles    
Events      
T = Trace of Precipitation, MM = Missing Value Source: NWS Daily Summary

Daily Weather History Graph

Daily Weather History Graph

Search for Another Location

Airport or City:

Trip Planner

Search our weather history database for the weather conditions in past years. The results will help you decide how hot, cold, wet, or windy it might be!

Date:

Astronomy

Apr. 05, 2012 Rise Set
Actual Time 6:31 AM CDT 7:29 PM CDT
Civil Twilight 6:02 AM CDT 7:58 PM CDT
Nautical Twilight 5:28 AM CDT 8:32 PM CDT
Astronomical Twilight 4:52 AM CDT 9:08 PM CDT
Moon 6:34 PM CDT (4/5) 5:29 AM CDT (4/5)
Length of Visible Light 13h 55m
Length of Day
12h 57m
Waxing Gibbous, 98% of the Moon is Illuminated
Apr 5
Waxing Gibbous
Apr 6
Full
Apr 13
Last Quarter
Apr 21
New
Apr 29
First Quarter

Hourly Weather History & Observations

Time (CDT) Temp. Windchill Dew Point Humidity Pressure Visibility Wind Dir Wind Speed Gust Speed Precip Events Conditions
12:53 AM 39.9 °F 33.9 °F 28.0 °F 63% 30.04 in 10.0 mi NE 9.2 mph - N/A   Clear
1:53 AM 39.0 °F 32.8 °F 28.0 °F 65% 30.05 in 10.0 mi ENE 9.2 mph - N/A   Clear
2:53 AM 37.9 °F 32.1 °F 28.0 °F 68% 30.04 in 10.0 mi NE 8.1 mph - N/A   Clear
3:53 AM 36.0 °F 28.5 °F 28.9 °F 76% 30.04 in 10.0 mi NE 10.4 mph - N/A   Clear
4:53 AM 35.1 °F 26.4 °F 28.0 °F 76% 30.04 in 10.0 mi NE 12.7 mph - N/A   Clear
5:53 AM 34.0 °F 26.0 °F 28.0 °F 79% 30.06 in 10.0 mi NNE 10.4 mph - N/A   Clear
6:53 AM 34.0 °F 27.2 °F 28.0 °F 79% 30.10 in 10.0 mi NNE 8.1 mph - N/A   Clear
7:53 AM 37.0 °F 28.1 °F 28.9 °F 73% 30.12 in 10.0 mi NE 15.0 mph - N/A   Clear
8:53 AM 41.0 °F 33.5 °F 28.9 °F 62% 30.13 in 10.0 mi ENE 13.8 mph - N/A   Partly Cloudy
9:53 AM 43.0 °F 35.1 °F 28.9 °F 58% 30.15 in 10.0 mi ENE 17.3 mph - N/A   Partly Cloudy
10:53 AM 45.0 °F 38.5 °F 30.9 °F 58% 30.16 in 10.0 mi East 13.8 mph - N/A   Partly Cloudy
11:53 AM 48.0 °F - 30.9 °F 52% 30.14 in 10.0 mi ENE 13.8 mph 20.7 mph N/A   Partly Cloudy
12:53 PM 50.0 °F - 30.2 °F 47% 30.11 in 10.0 mi NNE 13.8 mph 21.9 mph N/A   Clear
1:53 PM 50.0 °F - 30.9 °F 48% 30.12 in 10.0 mi NE 12.7 mph 23.0 mph N/A   Clear
2:53 PM 53.1 °F - 30.0 °F 41% 30.11 in 10.0 mi NE 17.3 mph - N/A   Partly Cloudy
3:53 PM 52.0 °F - 30.9 °F 45% 30.12 in 10.0 mi NE 17.3 mph 24.2 mph N/A   Clear
4:53 PM 52.0 °F - 28.9 °F 41% 30.12 in 10.0 mi NE 17.3 mph 20.7 mph N/A   Clear
5:53 PM 50.0 °F - 28.9 °F 44% 30.13 in 10.0 mi NE 13.8 mph - N/A   Clear
6:53 PM 46.9 °F - 28.9 °F 50% 30.15 in 10.0 mi NNE 10.4 mph - N/A   Partly Cloudy
7:53 PM 44.1 °F 37.4 °F 30.0 °F 58% 30.18 in 10.0 mi NNE 13.8 mph - N/A   Partly Cloudy
8:53 PM 39.0 °F 32.8 °F 28.0 °F 65% 30.21 in 10.0 mi ENE 9.2 mph - N/A   Clear
9:53 PM 37.0 °F 31.6 °F 26.1 °F 65% 30.21 in 10.0 mi ENE 6.9 mph - N/A   Clear
10:53 PM 36.0 °F 30.3 °F 24.1 °F 62% 30.22 in 10.0 mi NE 6.9 mph - N/A   Clear
11:53 PM 35.1 °F 29.3 °F 23.0 °F 61% 30.23 in 10.0 mi NE 6.9 mph - N/A   Clear